AD9CI-15 Weather Reports


time (UTC)temp
F
wind
direction
speed
knots
gust
knots
rain 1hr
in
rain 24hr
in
rain mn
in
humidity
%
barometer
mb
20260504030422 60 0.0 0.0 0.00 0.00 0.00 51 1004.0
20260504023223 60 0.0 0.0 0.00 0.00 0.00 50 1004.0
20260504020422 61 0.0 0.0 0.00 0.00 0.00 49 1003.9
20260504013223 62 0.0 0.0 0.00 0.00 0.00 48 1004.0
20260504010422 64 0.0 0.0 0.00 0.00 0.00 46 1003.8
20260504003224 66 0.0 0.0 0.00 0.00 0.00 45 1003.7
20260504000423 66 0.0 0.0 0.00 0.00 0.00 43 1003.5
20260503230423 68 0.0 0.0 0.00 0.00 0.00 42 1003.7
20260503223222 68 0.0 0.0 0.00 0.00 0.00 41 1003.9
20260503220422 68 0.0 0.0 0.00 0.00 0.00 41 1003.9
20260503213224 67 0.0 0.0 0.00 0.00 0.00 41 1004.4
20260503210423 66 0.0 0.0 0.00 0.00 0.00 45 1004.7
20260503203224 66 0.0 0.0 0.00 0.00 0.00 46 1005.6
20260503200422 66 0.0 0.0 0.00 0.00 0.00 42 1005.8
20260503193222 66 0.0 0.0 0.00 0.00 0.00 40 1005.8
20260503190423 65 0.0 0.0 0.00 0.00 0.00 42 1006.2
20260503180422 61 0.0 0.0 0.00 0.00 0.00 52 1007.3
20260503173224 59 0.0 0.0 0.00 0.00 0.00 53 1008.0
20260503170422 56 0.0 0.0 0.00 0.00 0.00 55 1008.6
20260503150422 57 0.0 0.0 0.00 0.00 0.00 48 1009.4
20260503130422 52 0.0 0.0 0.00 0.00 0.00 51 1010.4
20260503110422 49 0.0 0.0 0.00 0.00 0.00 50 1010.5
20260503090423 49 0.0 0.0 0.00 0.00 0.00 47 1011.1
20260503080422 49 0.0 0.0 0.00 0.00 0.00 48 1011.7
20260503070422 47 0.0 0.0 0.00 0.00 0.00 51 1012.1
20260503053223 46 0.0 0.0 0.00 0.00 0.00 55 1012.9
20260503050422 46 0.0 0.0 0.00 0.00 0.00 55 1013.1
20260503043224 47 0.0 0.0 0.00 0.00 0.00 56 1013.2
20260503040423 47 0.0 0.0 0.00 0.00 0.00 57 1013.4